When you browse on this site, cookies collect data to enhance your experience and personalize the content and advertising you see.
Visit our Privacy Policy to learn more. By continuing to use the site, you agree to this use of cookies and data.
  • In Latvia
  • List of Countries
  • For 7 days
  • Water Temperature
  • Satellite Maps
  • Weather Map
  • Weather Widgets
  • user-avatar
    Login

    Hourly Weather Novosvobodnaya

    Today, 24 March, Sunday

    Time Temperature Precipitation Wind Pressure Humidity
    00:00 -2°C° 0 mm 1 mps 715 mmHg 90%
    01:00 -2°C° 0 mm 1 mps 715 mmHg 88%
    02:00 -5°C° 0 mm 2 mps 714 mmHg 86%
    03:00 -5°C° 0 mm 2 mps 714 mmHg 84%
    04:00 -6°C° 0 mm 2 mps 715 mmHg 82%
    05:00 -6°C° 0 mm 2 mps 715 mmHg 80%
    06:00 -6°C° 0 mm 2 mps 715 mmHg 78%
    07:00 -4°C° 0 mm 2 mps 715 mmHg 74%
    08:00 -1°C° 0 mm 2 mps 715 mmHg 70%
    09:00 +3°C° 0 mm 1 mps 716 mmHg 66%
    10:00 +3°C° 0 mm 2 mps 716 mmHg 67%
    11:00 +2°C° 0 mm 3 mps 716 mmHg 69%
    12:00 +3°C° 0 mm 3 mps 716 mmHg 70%
    13:00 +3°C° 0.2 mm 3 mps 716 mmHg 71%
    14:00 +3°C° 0.2 mm 4 mps 716 mmHg 72%
    15:00 +4°C° 0.2 mm 4 mps 716 mmHg 73%
    16:00 +3°C° 0.1 mm 3 mps 716 mmHg 76%
    17:00 +2°C° 0.1 mm 3 mps 716 mmHg 79%
    18:00 +1°C° 0.1 mm 3 mps 716 mmHg 83%
    19:00 +1°C° 0 mm 2 mps 716 mmHg 86%
    20:00 -1°C° 0 mm 2 mps 717 mmHg 89%
    21:00 0°C° 0 mm 1 mps 717 mmHg 92%
    22:00 -1°C° 0 mm 1 mps 717 mmHg 91%
    23:00 -1°C° 0 mm 1 mps 717 mmHg 89%

    Tomorrow, 25 March, Monday

    Time Temperature Precipitation Wind Pressure Humidity
    00:00 -1°C° 0 mm 1 mps 717 mmHg 87%
    01:00 -1°C° 0 mm 1 mps 717 mmHg 86%
    02:00 -2°C° 0 mm 1 mps 716 mmHg 86%
    03:00 -2°C° 0 mm 1 mps 716 mmHg 85%
    04:00 -2°C° 0 mm 1 mps 716 mmHg 83%
    05:00 -2°C° 0 mm 1 mps 716 mmHg 82%
    06:00 -2°C° 0 mm 1 mps 716 mmHg 80%
    07:00 0°C° 0 mm 1 mps 716 mmHg 75%
    08:00 +2°C° 0 mm 1 mps 716 mmHg 69%
    09:00 +3°C° 0 mm 0 mps 716 mmHg 64%
    10:00 +5°C° 0 mm 1 mps 716 mmHg 63%
    11:00 +6°C° 0 mm 1 mps 716 mmHg 61%
    12:00 +8°C° 0 mm 1 mps 716 mmHg 59%
    13:00 +8°C° 0 mm 1 mps 715 mmHg 60%
    14:00 +7°C° 0 mm 2 mps 715 mmHg 61%
    15:00 +7°C° 0 mm 2 mps 714 mmHg 62%
    16:00 +7°C° 0 mm 1 mps 714 mmHg 67%
    17:00 +6°C° 0 mm 1 mps 714 mmHg 72%
    18:00 +5°C° 0 mm 1 mps 714 mmHg 78%
    19:00 +4°C° 0 mm 1 mps 714 mmHg 80%
    20:00 +3°C° 0 mm 1 mps 714 mmHg 82%
    21:00 +2°C° 0 mm 1 mps 714 mmHg 84%
    22:00 +2°C° 0 mm 1 mps 714 mmHg 84%
    23:00 +1°C° 0 mm 1 mps 714 mmHg 84%

    Day after tomorrow, 26 March, Tuesday

    Time Temperature Precipitation Wind Pressure Humidity
    00:00 +1°C° 0 mm 1 mps 714 mmHg 84%
    01:00 +1°C° 0 mm 1 mps 714 mmHg 84%
    02:00 +1°C° 0 mm 1 mps 714 mmHg 83%
    03:00 +1°C° 0 mm 1 mps 714 mmHg 83%
    04:00 +1°C° 0 mm 1 mps 714 mmHg 82%
    05:00 +1°C° 0 mm 1 mps 714 mmHg 81%
    06:00 +1°C° 0 mm 1 mps 714 mmHg 80%
    07:00 +4°C° 0 mm 1 mps 714 mmHg 73%
    08:00 +5°C° 0 mm 0 mps 715 mmHg 67%
    09:00 +7°C° 0 mm 0 mps 715 mmHg 61%
    10:00 +9°C° 0 mm 0 mps 715 mmHg 58%
    11:00 +11°C° 0 mm 1 mps 715 mmHg 55%
    12:00 +13°C° 0 mm 1 mps 715 mmHg 53%
    13:00 +13°C° 0 mm 1 mps 714 mmHg 52%
    14:00 +13°C° 0 mm 1 mps 714 mmHg 51%
    15:00 +13°C° 0 mm 1 mps 714 mmHg 51%
    16:00 +12°C° 0 mm 1 mps 713 mmHg 56%
    17:00 +11°C° 0 mm 1 mps 713 mmHg 62%
    18:00 +9°C° 0 mm 1 mps 713 mmHg 67%
    19:00 +8°C° 0 mm 1 mps 713 mmHg 70%
    20:00 +7°C° 0 mm 1 mps 713 mmHg 73%
    21:00 +5°C° 0 mm 1 mps 713 mmHg 76%
    22:00 +5°C° 0 mm 1 mps 713 mmHg 78%
    23:00 +5°C° 0 mm 1 mps 713 mmHg 80%

    27 March, Wednesday

    Time Temperature Precipitation Wind Pressure Humidity
    00:00 +5°C° 0 mm 1 mps 713 mmHg 81%
    01:00 +4°C° 0 mm 1 mps 713 mmHg 82%
    02:00 +4°C° 0 mm 1 mps 713 mmHg 83%
    03:00 +4°C° 0 mm 1 mps 713 mmHg 83%
    04:00 +4°C° 0 mm 1 mps 714 mmHg 84%
    05:00 +4°C° 0 mm 1 mps 714 mmHg 84%
    06:00 +4°C° 0 mm 1 mps 714 mmHg 84%
    07:00 +6°C° 0 mm 1 mps 715 mmHg 78%
    08:00 +7°C° 0 mm 1 mps 715 mmHg 73%
    09:00 +9°C° 0 mm 1 mps 716 mmHg 68%
    10:00 +9°C° 0 mm 2 mps 716 mmHg 65%
    11:00 +10°C° 0 mm 3 mps 716 mmHg 63%
    12:00 +10°C° 0 mm 4 mps 716 mmHg 61%
    13:00 +10°C° 0.1 mm 4 mps 716 mmHg 66%
    14:00 +8°C° 0.1 mm 4 mps 716 mmHg 70%
    15:00 +8°C° 0.1 mm 4 mps 716 mmHg 75%
    16:00 +7°C° 0.3 mm 4 mps 717 mmHg 78%
    17:00 +6°C° 0.3 mm 4 mps 717 mmHg 80%
    18:00 +5°C° 0.3 mm 3 mps 717 mmHg 83%
    19:00 +4°C° 0.1 mm 3 mps 718 mmHg 79%
    20:00 +3°C° 0.1 mm 3 mps 719 mmHg 74%
    21:00 +3°C° 0.1 mm 2 mps 719 mmHg 70%
    22:00 +2°C° 0 mm 2 mps 719 mmHg 73%
    23:00 +2°C° 0 mm 1 mps 720 mmHg 76%

    28 March, Thursday

    Time Temperature Precipitation Wind Pressure Humidity
    00:00 +1°C° 0 mm 1 mps 720 mmHg 79%
    01:00 +1°C° 0 mm 1 mps 720 mmHg 78%
    02:00 0°C° 0 mm 1 mps 720 mmHg 78%
    03:00 -1°C° 0 mm 0 mps 720 mmHg 78%
    04:00 -1°C° 0 mm 0 mps 720 mmHg 78%
    05:00 -2°C° 0 mm 0 mps 721 mmHg 78%
    06:00 -2°C° 0 mm 0 mps 721 mmHg 78%
    07:00 0°C° 0 mm 1 mps 721 mmHg 70%
    08:00 +2°C° 0 mm 1 mps 722 mmHg 61%
    09:00 +3°C° 0 mm 1 mps 722 mmHg 52%
    10:00 +3°C° 0 mm 2 mps 722 mmHg 48%
    11:00 +4°C° 0 mm 2 mps 722 mmHg 44%
    12:00 +5°C° 0 mm 2 mps 722 mmHg 41%
    13:00 +6°C° 0 mm 2 mps 722 mmHg 41%
    14:00 +6°C° 0 mm 2 mps 721 mmHg 41%
    15:00 +6°C° 0 mm 2 mps 721 mmHg 41%
    16:00 +5°C° 0 mm 2 mps 721 mmHg 45%
    17:00 +4°C° 0 mm 2 mps 721 mmHg 49%
    18:00 +4°C° 0 mm 2 mps 721 mmHg 54%
    19:00 +3°C° 0 mm 1 mps 721 mmHg 58%
    20:00 +2°C° 0 mm 1 mps 722 mmHg 62%
    21:00 0°C° 0 mm 0 mps 722 mmHg 67%
    22:00 -1°C° 0 mm 0 mps 722 mmHg 68%
    23:00 0°C° 0 mm 1 mps 722 mmHg 69%

    29 March, Friday

    Time Temperature Precipitation Wind Pressure Humidity
    00:00 0°C° 0 mm 1 mps 722 mmHg 70%
    01:00 0°C° 0 mm 1 mps 722 mmHg 70%
    02:00 0°C° 0 mm 1 mps 721 mmHg 71%
    03:00 0°C° 0 mm 1 mps 721 mmHg 71%
    04:00 0°C° 0 mm 1 mps 721 mmHg 71%
    05:00 0°C° 0 mm 1 mps 721 mmHg 71%
    06:00 -1°C° 0 mm 1 mps 721 mmHg 71%
    07:00 +2°C° 0 mm 1 mps 721 mmHg 64%
    08:00 +4°C° 0 mm 1 mps 722 mmHg 56%
    09:00 +6°C° 0 mm 1 mps 722 mmHg 49%
    10:00 +7°C° 0 mm 1 mps 722 mmHg 46%
    11:00 +7°C° 0 mm 2 mps 721 mmHg 43%
    12:00 +9°C° 0 mm 2 mps 721 mmHg 40%
    13:00 +8°C° 0 mm 2 mps 721 mmHg 41%
    14:00 +8°C° 0 mm 2 mps 720 mmHg 42%
    15:00 +8°C° 0 mm 3 mps 720 mmHg 43%
    16:00 +7°C° 0 mm 2 mps 720 mmHg 48%
    17:00 +6°C° 0 mm 2 mps 720 mmHg 54%
    18:00 +6°C° 0 mm 1 mps 720 mmHg 59%
    19:00 +5°C° 0 mm 1 mps 720 mmHg 63%
    20:00 +3°C° 0 mm 1 mps 720 mmHg 66%
    21:00 +1°C° 0 mm 0 mps 720 mmHg 70%
    22:00 0°C° 0 mm 0 mps 720 mmHg 71%
    23:00 +1°C° 0 mm 1 mps 720 mmHg 72%
    Show more